Voltar ao catálogo

COSMOS 1974

LostMilitarHEO
NORAD 19554·PAYLOAD·🇷🇺 Russia

Lançado Oct 3, 1988 de Plesetsk Cosmodrome

Loading…

Próximas Passagens (próximas 24 horas)

TLE

ObsoletoSource: Space-Track

Época: Aug 1, 2026, 11:11 UTC

1 19554U 88092A   26213.46605509  .00000142  00000-0  00000+0 0  9996
2 19554  70.1120 183.6602 4459270  61.8229  59.1487  2.00748445277040

Acompanhe COSMOS 1974 em tempo real com AllMySat

Download on the App Store